Location: Mount Cross
(36.6390°N, 79.4878°W)
Time: 20:13:26
(UTC+00:00)

Courier 1B Rocket - Pass Details

Date: 30 March 2023
Orbit: 920 x 1202 km, 28.2° (Epoch: 05 June)

Event Time Altitude Azimuth Distance (km) Brightness Sun altitude
Rises 21:49:45 0° 220° (SW) 4,064 9.0 20.8°
Reaches altitude 10° 21:53:18 10° 207° (SSW) 3,076 8.2 20.1°
Maximum altitude 21:58:58 23° 158° (SSE) 2,210 6.9 19.0°
Drops below altitude 10° 22:04:25 10° 109° (ESE) 2,949 7.1 17.9°
Sets 22:07:43 0° 96° (E) 3,857 7.5 17.3°
